Dewpoint
26 24 24 23 24 24 25 26 26 27 25 26 28 22 26 27 27 31 29 27 29 28
24 23 23 23 24 24 25 25 27 26 25 26 28 23 25 26 26 27 30 29 29 27
22 22 22 23 23 24 25 27 26 25 25 26 28 23 25 25 26 27 28 27 28 27
21 22 22 23 23 25 26 27 25 25 26 26 25 22 24 24 24 26 28 25 27 27
21 21 22 22 23 25 26 26 25 26 26 28 24 23 24 23 24 24 25 24 24 25
20 21 22 22 23 25 26 25 25 26 26 27 23 24 24 23 23 23 25 21 21 25
19 20 21 22 24 25 26 25 26 26 26 24 23 24 24 23 22 24 23 21 19 22
18 20 21 22 23 24 25 25 26 25 26 23 22 23 23 22 20 20 21 20 18 18
19 19 20 21 22 23 24 24 25 24 24 22 21 21 23 20 18 18 24 19 17 17
20 18 19 20 21 21 22 22 22 24 22 21 19 20 22 19 18 17 23 21 22 18
19 16 16 19 20 17 19 20 19 22 20 18 16 20 20 19 18 17 19 19 21 21
19 16 14 16 15 14 16 15 14 16 17 16 15 19 21 21 19 18 18 18 23 22
15 17 9 14 11 11 11 11 11 11 14 15 15 17 21 22 20 18 18 22 20 22
20 13 8 11 9 8 9 11 9 10 13 15 15 17 19 23 22 19 18 20 20 23
Wind_Speed
14 12 12 14 13 13 13 13 14 14 18 18 16 23 20 16 17 17 13 21 18 18
14 15 15 15 13 14 13 14 14 14 17 18 15 22 20 18 19 19 11 17 19 17
15 14 14 14 15 16 15 14 13 15 16 17 15 23 20 19 19 20 14 15 21 18
15 14 15 14 15 16 15 11 12 14 15 15 18 23 21 20 19 20 18 13 20 16
14 14 15 15 16 16 13 12 14 15 14 13 18 24 22 23 21 20 17 15 17 18
15 15 15 16 16 16 13 14 15 14 14 13 18 23 24 24 23 21 12 13 18 15
15 15 15 16 16 16 15 16 15 13 11 14 17 22 24 23 23 24 9 15 19 18
14 14 15 16 17 17 17 17 14 13 10 14 18 24 26 22 22 22 15 16 19 18
12 12 15 17 18 17 18 17 16 14 12 14 19 33 32 27 21 20 12 15 17 18
13 13 16 17 18 19 20 17 19 15 15 13 21 33 32 30 20 19 17 15 14 19
14 15 17 18 17 19 17 18 18 16 16 15 21 32 33 28 19 18 17 15 17 18
14 16 18 19 19 18 17 18 19 18 19 19 21 32 32 25 18 18 18 16 15 21
13 12 18 17 17 17 16 16 17 18 19 22 21 28 31 28 19 20 18 16 17 22
15 9 15 16 14 16 16 14 17 17 17 19 21 23 31 30 20 20 19 17 19 17
Wind_Direction
13 25 28 22 14 359 352 344 355 7 354 349 354 351 345 338 338 330 352 338 330 345
29 31 26 18 6 354 344 355 14 4 353 345 352 351 346 340 333 332 330 338 334 356
27 30 24 14 1 353 349 8 11 356 348 341 356 351 346 340 333 333 328 346 339 4
26 29 22 9 357 350 357 11 354 346 342 350 359 351 344 340 336 330 330 341 352 4
23 28 19 5 353 350 2 350 344 340 346 10 360 354 349 341 337 331 332 339 5 6
22 25 16 1 350 347 345 339 336 343 358 17 3 356 350 345 341 336 335 10 7 15
23 25 7 353 345 343 335 337 338 352 27 18 5 4 355 349 347 349 22 24 10 8
22 21 1 352 343 337 336 342 351 16 45 26 13 9 2 357 354 0 23 25 12 6
13 15 358 347 341 337 340 357 8 25 32 37 16 10 8 7 359 359 19 25 14 6
8 8 356 345 344 353 356 9 9 18 23 31 14 11 9 9 3 0 3 16 6 3
3 0 355 353 3 7 1 14 9 18 18 30 14 10 9 10 3 1 357 4 2 358
356 1 11 11 18 10 8 17 12 14 14 20 12 7 7 10 3 1 352 356 360 6
358 19 29 22 23 11 13 13 9 11 14 11 8 2 8 9 3 2 356 356 12 4
345 43 48 36 31 13 9 5 11 10 11 7 5 0 9 9 11 7 356 12 9 4